Volver al catálogo

STARLINK-3059

ActivoComunicacionesVLEO
NORAD 49181·PAYLOAD·🇺🇸 United States

Lanzado Sep 14, 2021 desde Vandenberg Space Force Base

Loading…

Próximos Pases (próximas 24 horas)

TLE

ActualizadoSource: CelesTrak SupGP

Época: Sep 14, 2026, 20:47 UTC

1 49181C 21082BD  26257.86645833 -.00032841  00000+0 -27515-2 0  2579
2 49181  70.0021 177.4748 0003052 268.3596  95.1636 14.98356101    11

Sigue STARLINK-3059 en tiempo real con AllMySat

Download on the App Store